Time,TemperatureF,DewpointF,PressureIn,WindDirection,WindDirectionDegrees,WindSpeedMPH,WindSpeedGustMPH,Humidity,HourlyPrecipIn,Conditions,Clouds,dailyrainin,SolarRadiationWatts/m^2,SoftwareType,DateUTC
2013-04-02 00:00:00,24.0,11.0,-100.00,WNW,292,4.0,-999.0,55,-99.99,,,-99.99,0.000000,,2013-04-02 04:00:00,
2013-04-02 00:43:00,24.0,11.0,-100.00,WNW,292,4.0,-999.0,55,-99.99,,,-99.99,0.000000,,2013-04-02 04:43:00,
2013-04-02 00:53:00,24.0,11.0,-100.00,WNW,292,4.0,-999.0,55,-99.99,,,-99.99,0.000000,,2013-04-02 04:53:00,
2013-04-02 01:00:00,22.0,12.0,-100.00,WNW,292,3.0,-999.0,63,-99.99,,,-99.99,0.000000,,2013-04-02 05:00:00,
2013-04-02 01:43:00,22.0,12.0,-100.00,WNW,292,3.0,-999.0,63,-99.99,,,-99.99,0.000000,,2013-04-02 05:43:00,
2013-04-02 01:52:00,22.0,12.0,-100.00,WNW,292,3.0,-999.0,63,-99.99,,,-99.99,0.000000,,2013-04-02 05:52:00,
2013-04-02 02:00:00,19.0,13.0,-100.00,West,270,2.0,-999.0,75,-99.99,,,-99.99,0.000000,,2013-04-02 06:00:00,
2013-04-02 02:42:00,19.0,13.0,-100.00,West,270,2.0,-999.0,75,-99.99,,,-99.99,0.000000,,2013-04-02 06:42:00,
2013-04-02 02:52:00,19.0,13.0,-100.00,West,270,2.0,-999.0,75,-99.99,,,-99.99,0.000000,,2013-04-02 06:52:00,
2013-04-02 04:00:00,21.0,14.0,-100.00,WSW,247,4.0,-999.0,74,-99.99,,,-99.99,0.000000,,2013-04-02 08:00:00,
2013-04-02 04:43:00,21.0,14.0,-100.00,WSW,247,4.0,-999.0,74,-99.99,,,-99.99,0.000000,,2013-04-02 08:43:00,
2013-04-02 04:52:00,21.0,14.0,-100.00,WSW,247,4.0,-999.0,74,-99.99,,,-99.99,0.000000,,2013-04-02 08:52:00,
2013-04-02 05:00:00,22.0,14.0,-100.00,WSW,247,5.0,-999.0,71,-99.99,,,-99.99,0.000000,,2013-04-02 09:00:00,
2013-04-02 05:43:00,22.0,14.0,-100.00,WSW,247,5.0,-999.0,71,-99.99,,,-99.99,0.000000,,2013-04-02 09:43:00,
2013-04-02 05:53:00,22.0,14.0,-100.00,WSW,247,5.0,-999.0,71,-99.99,,,-99.99,0.000000,,2013-04-02 09:53:00,
2013-04-02 06:00:00,21.0,15.0,-100.00,West,270,5.0,-999.0,74,-99.99,,,-99.99,0.000000,,2013-04-02 10:00:00,
2013-04-02 06:43:00,21.0,15.0,-100.00,West,270,5.0,-999.0,74,-99.99,,,-99.99,0.000000,,2013-04-02 10:43:00,
2013-04-02 06:53:00,21.0,15.0,-100.00,West,270,5.0,-999.0,74,-99.99,,,-99.99,0.000000,,2013-04-02 10:53:00,
2013-04-02 07:00:00,22.0,15.0,-100.00,WNW,292,6.0,-999.0,74,-99.99,,,-99.99,0.000000,,2013-04-02 11:00:00,
2013-04-02 07:43:00,22.0,15.0,-100.00,WNW,292,6.0,-999.0,74,-99.99,,,-99.99,0.000000,,2013-04-02 11:43:00,
2013-04-02 07:53:00,22.0,15.0,-100.00,WNW,292,6.0,-999.0,74,-99.99,,,-99.99,0.000000,,2013-04-02 11:53:00,
2013-04-02 09:00:00,25.0,18.0,-100.00,West,270,8.0,-999.0,74,-99.99,,,-99.99,148.479996,,2013-04-02 13:00:00,
2013-04-02 09:42:00,25.0,18.0,-100.00,West,270,8.0,-999.0,74,-99.99,,,-99.99,148.479996,,2013-04-02 13:42:00,
2013-04-02 09:52:00,25.0,18.0,-100.00,West,270,8.0,-999.0,74,-99.99,,,-99.99,148.479996,,2013-04-02 13:52:00,
2013-04-02 10:00:00,30.0,14.0,-100.00,WNW,292,8.0,-999.0,50,-99.99,,,-99.99,389.760010,,2013-04-02 14:00:00,
2013-04-02 10:43:00,30.0,14.0,-100.00,WNW,292,8.0,-999.0,50,-99.99,,,-99.99,389.760010,,2013-04-02 14:43:00,
2013-04-02 10:52:00,30.0,14.0,-100.00,WNW,292,8.0,-999.0,50,-99.99,,,-99.99,389.760010,,2013-04-02 14:52:00,
2013-04-02 11:00:00,33.0,10.0,-100.00,WNW,292,10.0,-999.0,37,-99.99,,,-99.99,477.920013,,2013-04-02 15:00:00,
2013-04-02 11:43:00,33.0,10.0,-100.00,WNW,292,10.0,-999.0,37,-99.99,,,-99.99,477.920013,,2013-04-02 15:43:00,
2013-04-02 11:58:00,33.0,10.0,-100.00,WNW,292,10.0,-999.0,37,-99.99,,,-99.99,477.920013,,2013-04-02 15:58:00,
2013-04-02 12:00:00,35.0,9.0,-100.00,WNW,292,12.0,-999.0,33,-99.99,,,-99.99,509.239990,,2013-04-02 16:00:00,
2013-04-02 12:44:00,35.0,9.0,-100.00,WNW,292,12.0,-999.0,33,-99.99,,,-99.99,509.239990,,2013-04-02 16:44:00,
2013-04-02 12:54:00,35.0,9.0,-100.00,WNW,292,12.0,-999.0,33,-99.99,,,-99.99,509.239990,,2013-04-02 16:54:00,
2013-04-02 13:00:00,37.0,10.0,-100.00,WNW,292,13.0,-999.0,32,-99.99,,,-99.99,701.799988,,2013-04-02 17:00:00,
2013-04-02 13:44:00,37.0,10.0,-100.00,WNW,292,13.0,-999.0,32,-99.99,,,-99.99,701.799988,,2013-04-02 17:44:00,
2013-04-02 13:57:00,37.0,10.0,-100.00,WNW,292,13.0,-999.0,32,-99.99,,,-99.99,701.799988,,2013-04-02 17:57:00,
2013-04-02 14:00:00,38.0,11.0,-100.00,WNW,292,12.0,-999.0,31,-99.99,,,-99.99,625.239990,,2013-04-02 18:00:00,
2013-04-02 14:43:00,38.0,11.0,-100.00,WNW,292,12.0,-999.0,31,-99.99,,,-99.99,625.239990,,2013-04-02 18:43:00,
2013-04-02 14:57:00,38.0,11.0,-100.00,WNW,292,12.0,-999.0,31,-99.99,,,-99.99,625.239990,,2013-04-02 18:57:00,
2013-04-02 15:00:00,39.0,10.0,-100.00,WNW,292,13.0,-999.0,30,-99.99,,,-99.99,473.279999,,2013-04-02 19:00:00,
2013-04-02 15:47:00,39.0,10.0,-100.00,WNW,292,13.0,-999.0,30,-99.99,,,-99.99,473.279999,,2013-04-02 19:47:00,
2013-04-02 15:57:00,39.0,10.0,-100.00,WNW,292,13.0,-999.0,30,-99.99,,,-99.99,473.279999,,2013-04-02 19:57:00,
2013-04-02 16:00:00,40.0,11.0,-100.00,WNW,292,13.0,-999.0,29,-99.99,,,-99.99,516.200012,,2013-04-02 20:00:00,
2013-04-02 16:44:00,40.0,11.0,-100.00,WNW,292,13.0,-999.0,29,-99.99,,,-99.99,516.200012,,2013-04-02 20:44:00,
2013-04-02 16:55:00,40.0,11.0,-100.00,WNW,292,13.0,-999.0,29,-99.99,,,-99.99,516.200012,,2013-04-02 20:55:00,
2013-04-02 18:00:00,41.0,9.0,-100.00,WNW,292,14.0,-999.0,25,-99.99,,,-99.99,402.519989,,2013-04-02 22:00:00,
2013-04-02 18:44:00,41.0,9.0,-100.00,WNW,292,14.0,-999.0,25,-99.99,,,-99.99,402.519989,,2013-04-02 22:44:00,
2013-04-02 18:54:00,41.0,9.0,-100.00,WNW,292,14.0,-999.0,25,-99.99,,,-99.99,402.519989,,2013-04-02 22:54:00,
2013-04-02 19:00:00,40.0,7.0,-100.00,WNW,292,13.0,-999.0,25,-99.99,,,-99.99,216.919998,,2013-04-02 23:00:00,
2013-04-02 19:43:00,40.0,7.0,-100.00,WNW,292,13.0,-999.0,25,-99.99,,,-99.99,216.919998,,2013-04-02 23:43:00,
2013-04-02 19:54:00,40.0,7.0,-100.00,WNW,292,13.0,-999.0,25,-99.99,,,-99.99,216.919998,,2013-04-02 23:54:00,
2013-04-02 20:00:00,37.0,8.0,-100.00,NW,315,12.0,-999.0,29,-99.99,,,-99.99,55.680000,,2013-04-03 00:00:00,
2013-04-02 20:48:00,37.0,8.0,-100.00,NW,315,12.0,-999.0,29,-99.99,,,-99.99,55.680000,,2013-04-03 00:48:00,
2013-04-02 20:57:00,37.0,8.0,-100.00,NW,315,12.0,-999.0,29,-99.99,,,-99.99,55.680000,,2013-04-03 00:57:00,
2013-04-02 21:00:00,33.0,10.0,-100.00,NW,315,10.0,-999.0,37,-99.99,,,-99.99,1.160000,,2013-04-03 01:00:00,
2013-04-02 21:43:00,33.0,10.0,-100.00,NW,315,10.0,-999.0,37,-99.99,,,-99.99,1.160000,,2013-04-03 01:43:00,
2013-04-02 21:54:00,33.0,10.0,-100.00,NW,315,10.0,-999.0,37,-99.99,,,-99.99,1.160000,,2013-04-03 01:54:00,
2013-04-02 22:00:00,31.0,11.0,-100.00,NW,315,7.0,-999.0,42,-99.99,,,-99.99,0.000000,,2013-04-03 02:00:00,
2013-04-02 22:44:00,31.0,11.0,-100.00,NW,315,7.0,-999.0,42,-99.99,,,-99.99,0.000000,,2013-04-03 02:44:00,
2013-04-02 22:53:00,31.0,11.0,-100.00,NW,315,7.0,-999.0,42,-99.99,,,-99.99,0.000000,,2013-04-03 02:53:00,
2013-04-02 23:00:00,28.0,12.0,-100.00,WNW,292,5.0,-999.0,49,-99.99,,,-99.99,0.000000,,2013-04-03 03:00:00,
2013-04-02 23:44:00,28.0,12.0,-100.00,WNW,292,5.0,-999.0,49,-99.99,,,-99.99,0.000000,,2013-04-03 03:44:00,
2013-04-02 23:54:00,28.0,12.0,-100.00,WNW,292,5.0,-999.0,49,-99.99,,,-99.99,0.000000,,2013-04-03 03:54:00,